SL-8 R/B

Satellite information

Favourite Embed

Satellite Type and Status

ROCKET BODYIN ORBIT

Key statistics

Satellite SL-8 R/B at a glance.

Uptime

11074

Days in orbit

Revolutions

≈ 13.7

Per day

Orbit

LEO

Low Earth Orbit

Inclination

82.9

Latest

Satellite identification and parameters

Extended collection of information and parameters for SL-8 R/B.

Object identification

Identified? True

Debris? False

Object name: SL-8 R/B

International designator: 1995-032B

Object number (NORAD): 23604

Object ID (CCSDS): 23604

Country: COMMONWEALTH OF INDEPENDENT STATES (CIS)

Current information (Y/N): Y

RCS size: LARGE

Orbital parameters

Period: 104.764 minutes

Inclination: 82.9066 deg

SMA: 7361.521 km

Apoapsis: 1001.296 km

Periapsis: 965.475 km

RAAN: 43.4156 deg

Eccentricy: 0.00243303

Argument of periapsis: 15.7347 deg

Mean anomaly: 344.4559 deg

Mean motion: 13.74521273 rev/day

Mean motion (dot): 0.00000082 rev/day2

B* drag term: 0.000070034672 1/REarth

Two-line elements (TLE)

Creation date: Oct. 28, 2025, 7:11 p.m.

Reference frame: TEME

Reference center: EARTH

Epoch: Oct. 28, 2025, 1:15 p.m. UTC

TLE line 0: 0 SL-8 R/B

TLE line 1: 1 23604U 95032B 25301.55248254 .00000082 00000-0 70035-4 0 9999

TLE line 2: 2 23604 82.9066 43.4156 0024330 15.7347 344.4559 13.74521273520466

Live tracking on map

Real-time ground track for satellite SL-8 R/B.

In-orbit conjunctions

A list of the most updated potential collisions computed for object SL-8 R/B.

Target Orbit TCA Probability of collision Miss distance Type
FENGYUN 1C DEB SSO 2025-05-23 21:29:44 0.0005109581 116.0 (m) DEBRIS

Associated space launch

Civilian navigation satellite equivalent to the purely military Parus

SL-8 R/B was lifted into orbit during the mission ‘Kosmos-3M | Tsikada 21’, on board a Kosmos-3M space rocket.

The launch took place on July 5, 1995, 3:09 a.m. from 132/1 (132L).

For more information about the launch, click the button.

Launch to space Kosmos-3M | Tsikada 21
Kosmos-3M | Tsikada 21

Agency: N/A

Status: Launch Successful

Launch date: July 5, 1995, 3:09 a.m. UTC

Rocket: Kosmos-3M

Launch pad: 132/1 (132L)

Location: Plesetsk Cosmodrome, Russian Federation

...

Latest news about this satellite

There are no fresh news available about this satellite. Check back as we update our databases every day.


Newsletter sign-up

Weekly statistics, charts and insights to help you stay on top of the space industry.